Terug naar catalogus

THOR ABLESTAR DEB

ActiefLEO
NORAD 406·DEBRIS·🇺🇸 United States

Gelanceerd Jun 29, 1961 vanaf Cape Canaveral Space Force Station

Loading…

Volgende Passages (komende 24 uur)

TLE

VersSource: Space-Track

Epoch: Sep 14, 2026, 22:51 UTC

1 00406U 61015EF  26257.95237139  .00000314  00000-0  42105-3 0  9997
2 00406  66.7772 141.6569 0118791 333.1206  44.4097 13.69685768233492

Volg THOR ABLESTAR DEB in realtime met AllMySat

Download on the App Store